Location: Volkssternwarte_EN
(51.3230°N, 7.4010°E)
Time: 20:53:02
(UTC+02:00)

X-37B - Visible Passes

Search period start: 24 September 2021 00:00
Search period end: 04 October 2021 00:00
Orbit: 381 x 393 km, 45.0° (Epoch: 29 August)

Date Brightness Start Highest point End Pass type
(mag) Time Alt. Az. Time Alt. Az. Time Alt. Az.
24 Sep 2.5 06:36:56 10° SW 06:39:25 21° SSE 06:41:56 10° ESE visible
25 Sep 2.7 05:40:29 16° S 05:41:16 17° SSE 05:43:26 10° ESE visible
26 Sep 2.2 06:17:04 14° SW 06:19:06 25° S 06:21:45 10° ESE visible
27 Sep 2.5 05:21:20 21° SSE 05:21:20 21° SSE 05:23:23 10° ESE visible
28 Sep 2.0 05:57:54 22° SSW 05:58:47 26° S 06:01:29 10° ESE visible
29 Sep 3.1 05:02:12 16° SE 05:02:12 16° SE 05:03:13 10° ESE visible
29 Sep 2.2 06:34:29 12° WSW 06:36:40 22° SSW 06:39:12 10° SE visible
30 Sep 2.1 05:38:49 24° S 05:38:49 24° S 05:41:07 10° SE visible
01 Oct 2.4 06:15:30 16° SW 06:16:19 18° SSW 06:18:32 10° SSE visible
02 Oct 3.1 05:19:57 14° SSE 05:19:57 14° SSE 05:20:39 10° SE visible
03 Oct 3.0 05:56:49 12° S 05:56:49 12° S 05:57:32 10° S visible
